This is the latest recevied weather packets stored in our database for station/object OE-11140. If no packets are shown the sender has not sent any weather packets the latest 10 day(s).
| Time | Temp. | Humidity | Pressure | Rain* | Wind** | Luminosity | Snow |
|---|---|---|---|---|---|---|---|
| 1788023489 | 21.67° C | 55% | 1014.2 hPa | 0 mm | - | 53 W/m² | - |
| 1788023115 | 21.67° C | 55% | 1014.3 hPa | 0 mm | - | 86 W/m² | - |
| 1788022516 | 21.67° C | 54% | 1014.3 hPa | 0 mm | - | 119 W/m² | - |
| 1788021689 | 21.67° C | 56% | 1014.3 hPa | 0 mm | - | 80 W/m² | - |
| 1788021316 | 21.67° C | 54% | 1014.3 hPa | 0 mm | - | 80 W/m² | - |
| 1788020715 | 22.22° C | 54% | 1014.2 hPa | 0 mm | - | 139 W/m² | - |
| 1788019889 | 22.22° C | 54% | 1014.1 hPa | 0 mm | - | 172 W/m² | - |
| 1788019516 | 22.22° C | 52% | 1014.2 hPa | 0 mm | - | 212 W/m² | - |
| 1788018915 | 22.22° C | 54% | 1014.1 hPa | 0 mm | - | 146 W/m² | - |
| 1788018089 | 22.22° C | 53% | 1014 hPa | 0 mm | - | 126 W/m² | - |
| 1788017716 | 22.22° C | 53% | 1014 hPa | 0 mm | - | 106 W/m² | - |
| 1788017116 | 22.22° C | 52% | 1013.9 hPa | 0 mm | - | 133 W/m² | - |
| 1788016289 | 22.78° C | 51% | 1013.7 hPa | 0 mm | - | 199 W/m² | - |
| 1788015916 | 22.78° C | 49% | 1013.7 hPa | 0 mm | - | 219 W/m² | - |
| 1788015316 | 23.33° C | 48% | 1013.7 hPa | 0 mm | - | 252 W/m² | - |
| 1788014489 | 23.89° C | 46% | 1013.6 hPa | 0 mm | - | 371 W/m² | - |
| 1788014116 | 23.33° C | 46% | 1013.7 hPa | 0 mm | - | 537 W/m² | - |
| 1788013515 | 23.33° C | 46% | 1013.8 hPa | 0 mm | - | 570 W/m² | - |
| 1788012689 | 23.33° C | 50% | 1013.9 hPa | 0 mm | - | 411 W/m² | - |
| 1788012316 | 23.33° C | 47% | 1014.2 hPa | 0 mm | - | 378 W/m² | - |
| 1788011716 | 23.33° C | 45% | 1014.3 hPa | 0 mm | - | 298 W/m² | - |
| 1788010889 | 23.33° C | 45% | 1014.3 hPa | 0 mm | - | 371 W/m² | - |
| 1788010516 | 23.33° C | 44% | 1014.1 hPa | 0 mm | - | 371 W/m² | - |
| 1788009915 | 23.33° C | 41% | 1014.3 hPa | 0 mm | - | 318 W/m² | - |
| 1788009088 | 23.33° C | 40% | 1014.5 hPa | 0 mm | - | 404 W/m² | - |
* Rain latest hour (hover to see other rain measurements)
** Current wind speed in m/s (hover to see current wind gust speed)